SHILOH Weather Reports


Display with metric or nautical units.
time (UTC)temp
F
wind
direction
speed
MPH
gust
MPH
rain 1hr
in
rain 24hr
in
rain mn
in
humidity
%
barometer
mb
20260505101537 60 267 1.0 3.0 0.00 0.00 0.00 71 1009.0
20260505100036 60 269 2.0 4.0 0.00 0.00 0.00 71 1008.9
20260505094535 59 245 1.0 3.0 0.00 0.00 0.00 73 1008.9
20260505093032 60 260 0.0 1.0 0.00 0.00 0.00 71 1008.9
20260505091530 61 260 0.0 0.0 0.00 0.00 0.00 68 1008.7
20260505090026 62 262 1.0 4.0 0.00 0.00 0.00 66 1008.6
20260505084541 62 274 1.0 3.0 0.00 0.00 0.00 66 1008.5
20260505083025 61 264 1.0 2.0 0.00 0.00 0.00 67 1008.5
20260505081524 61 276 0.0 2.0 0.00 0.00 0.00 67 1008.5
20260505080027 62 245 1.0 2.0 0.00 0.00 0.00 67 1008.5
20260505074523 62 258 1.0 3.0 0.00 0.00 0.00 67 1008.5
20260505073022 63 274 1.0 4.0 0.00 0.00 0.00 65 1008.4
20260505071521 63 260 1.0 3.0 0.00 0.00 0.00 64 1008.2
20260505070020 63 259 1.0 4.0 0.00 0.00 0.00 64 1008.3
20260505064520 64 249 1.0 2.0 0.00 0.00 0.00 64 1008.4
20260505063023 64 253 0.0 3.0 0.00 0.00 0.00 62 1008.6
20260505061520 65 228 1.0 2.0 0.00 0.00 0.00 62 1008.7
20260505060016 65 278 2.0 4.0 0.00 0.00 0.00 61 1008.6
20260505054515 65 266 1.0 3.0 0.00 0.00 0.00 60 1008.6
20260505053118 65 279 2.0 4.0 0.00 0.00 0.00 60 1008.6
20260505051517 65 267 1.0 4.0 0.00 0.00 0.00 61 1008.6
20260505041504 63 270 1.0 3.0 0.00 0.00 0.00 62 1008.4
20260505040059 61 246 0.0 2.0 0.00 0.00 0.00 67 1008.4
20260505034617 58 269 0.0 0.0 0.00 0.00 0.00 71 1008.4
20260505034501 58 269 0.0 0.0 0.00 0.00 0.00 71 1008.4
20260505033058 58 269 0.0 1.0 0.00 0.00 0.00 71 1008.4
20260505031558 58 269 0.0 0.0 0.00 0.00 0.00 67 1008.3
20260505030057 60 270 0.0 0.0 0.00 0.00 0.00 63 1008.3
20260505024556 62 273 0.0 0.0 0.00 0.00 0.00 61 1008.1
20260505023100 62 273 0.0 1.0 0.00 0.00 0.00 60 1008.4
20260505021555 62 274 0.0 3.0 0.00 0.00 0.00 59 1008.4
20260505020058 63 264 1.0 3.0 0.00 0.00 0.00 58 1008.3
20260505014554 63 248 0.0 0.0 0.00 0.00 0.00 57 1008.1
20260505013053 64 259 0.0 2.0 0.00 0.00 0.00 54 1008.1
20260505011608 65 255 0.0 1.0 0.00 0.00 0.00 52 1008.2
20260505010052 66 257 0.0 3.0 0.00 0.00 0.00 50 1007.9
20260505004557 66 280 1.0 4.0 0.00 0.00 0.00 49 1007.7
20260505003056 67 274 0.0 3.0 0.00 0.00 0.00 48 1007.6
20260505001604 69 270 0.0 4.0 0.00 0.00 0.00 46 1007.6
20260505000105 70 266 1.0 4.0 0.00 0.00 0.00 44 1007.5
20260504234552 71 283 2.0 5.0 0.00 0.00 0.00 43 1007.4
20260504233103 72 278 2.0 7.0 0.00 0.00 0.00 43 1007.4
20260504231547 72 281 1.0 7.0 0.00 0.00 0.00 42 1007.5
20260504230046 73 266 3.0 8.0 0.00 0.00 0.00 40 1007.5
20260504224544 73 263 3.0 5.0 0.00 0.00 0.00 40 1007.6
20260504223043 74 259 2.0 8.0 0.00 0.00 0.00 42 1007.6
20260504221544 74 291 2.0 8.0 0.00 0.00 0.00 42 1007.7
20260504220041 74 277 2.0 6.0 0.00 0.00 0.00 40 1007.8
20260504214542 74 257 2.0 8.0 0.00 0.00 0.00 41 1007.8
20260504213040 74 239 3.0 6.0 0.00 0.00 0.00 40 1007.8
20260504211538 74 283 3.0 12.0 0.00 0.00 0.00 40 1007.8
20260504210038 74 288 5.0 12.0 0.00 0.00 0.00 40 1007.8
20260504204535 75 269 1.0 7.0 0.00 0.00 0.00 42 1007.8
20260504203034 74 314 1.0 10.0 0.00 0.00 0.00 40 1007.8
20260504201530 74 280 2.0 8.0 0.00 0.00 0.00 38 1008.2
20260504200029 74 300 2.0 9.0 0.00 0.00 0.00 40 1008.5
20260504194531 74 281 2.0 10.0 0.00 0.00 0.00 39 1008.6
20260504193025 74 281 4.0 10.0 0.00 0.00 0.00 40 1008.9
20260504191522 73 307 3.0 8.0 0.00 0.00 0.00 39 1009.2
20260504190024 73 314 3.0 6.0 0.00 0.00 0.00 40 1009.4
20260504184516 73 291 3.0 10.0 0.00 0.00 0.00 41 1009.8
20260504183013 72 298 2.0 8.0 0.00 0.00 0.00 41 1010.0
20260504181512 72 250 2.0 9.0 0.00 0.00 0.00 43 1010.1
20260504180010 72 287 4.0 8.0 0.00 0.00 0.00 39 1010.3
20260504174510 71 274 3.0 10.0 0.00 0.00 0.00 41 1010.4
20260504173007 72 269 2.0 7.0 0.00 0.00 0.00 42 1010.7
20260504171503 71 288 3.0 8.0 0.00 0.00 0.00 42 1010.8
20260504120110 42 49 0.0 2.0 0.00 0.00 0.00 45 1013.6